When you browse on this site, cookies collect data to enhance your experience and personalize the content and advertising you see.
Visit our Privacy Policy to learn more. By continuing to use the site, you agree to this use of cookies and data.
  • In Hungary
  • List of Countries
  • For 7 days
  • Water Temperature
  • Weather Map
  • News
  • Weather Widgets
  • user-avatar
    Login

    Hourly Weather Banswara

    Today, 19 August, Monday

    Time Temperature Precipitation Wind Pressure Humidity
    00:00 +27°C° 0 mm 3 mps 734 mmHg 85%
    01:00 +26°C° 0 mm 3 mps 734 mmHg 88%
    02:00 +26°C° 0 mm 3 mps 734 mmHg 91%
    03:00 +26°C° 0 mm 3 mps 733 mmHg 92%
    04:00 +26°C° 0 mm 3 mps 733 mmHg 94%
    05:00 +26°C° 0 mm 2 mps 733 mmHg 96%
    06:00 +26°C° 0 mm 3 mps 734 mmHg 94%
    07:00 +27°C° 0 mm 3 mps 734 mmHg 92%
    08:00 +28°C° 0 mm 4 mps 735 mmHg 90%
    09:00 +29°C° 0.4 mm 4 mps 735 mmHg 86%
    10:00 +30°C° 0.4 mm 4 mps 735 mmHg 82%
    11:00 +32°C° 0 mm 4 mps 736 mmHg 75%
    12:00 +32°C° 0.5 mm 4 mps 735 mmHg 75%
    13:00 +33°C° 0.5 mm 4 mps 734 mmHg 74%
    14:00 +33°C° 0.5 mm 4 mps 734 mmHg 74%
    15:00 +33°C° 0.5 mm 4 mps 733 mmHg 74%
    16:00 +33°C° 0.5 mm 4 mps 733 mmHg 75%
    17:00 +31°C° 0.5 mm 3 mps 733 mmHg 75%
    18:00 +31°C° 0.1 mm 3 mps 733 mmHg 78%
    19:00 +30°C° 0.1 mm 3 mps 733 mmHg 81%
    20:00 +29°C° 0.1 mm 2 mps 734 mmHg 84%
    21:00 +28°C° 0 mm 2 mps 734 mmHg 85%
    22:00 +28°C° 0 mm 2 mps 734 mmHg 85%
    23:00 +28°C° 0 mm 2 mps 734 mmHg 86%

    Tomorrow, 20 August, Tuesday

    Time Temperature Precipitation Wind Pressure Humidity
    00:00 +27°C° 0 mm 2 mps 734 mmHg 88%
    01:00 +27°C° 0 mm 2 mps 734 mmHg 90%
    02:00 +27°C° 0 mm 2 mps 733 mmHg 92%
    03:00 +27°C° 0 mm 2 mps 733 mmHg 92%
    04:00 +26°C° 0 mm 2 mps 733 mmHg 93%
    05:00 +26°C° 0 mm 2 mps 733 mmHg 93%
    06:00 +27°C° 0 mm 2 mps 734 mmHg 91%
    07:00 +28°C° 0 mm 3 mps 734 mmHg 88%
    08:00 +29°C° 0 mm 3 mps 734 mmHg 85%
    09:00 +30°C° 0 mm 3 mps 734 mmHg 80%
    10:00 +32°C° 0 mm 4 mps 735 mmHg 75%
    11:00 +33°C° 0 mm 4 mps 735 mmHg 70%
    12:00 +34°C° 0.1 mm 5 mps 734 mmHg 70%
    13:00 +34°C° 0.1 mm 5 mps 734 mmHg 69%
    14:00 +34°C° 0.1 mm 5 mps 733 mmHg 68%
    15:00 +34°C° 0.6 mm 5 mps 733 mmHg 71%
    16:00 +33°C° 0.6 mm 5 mps 732 mmHg 73%
    17:00 +32°C° 0.6 mm 4 mps 732 mmHg 76%
    18:00 +30°C° 0.3 mm 4 mps 733 mmHg 79%
    19:00 +29°C° 0.3 mm 3 mps 733 mmHg 81%
    20:00 +28°C° 0.3 mm 3 mps 734 mmHg 84%
    21:00 +28°C° 0 mm 3 mps 733 mmHg 84%
    22:00 +28°C° 0 mm 2 mps 733 mmHg 85%
    23:00 +28°C° 0 mm 2 mps 733 mmHg 85%

    Day after tomorrow, 21 August, Wednesday

    Time Temperature Precipitation Wind Pressure Humidity
    00:00 +28°C° 0 mm 3 mps 733 mmHg 86%
    01:00 +27°C° 0 mm 3 mps 733 mmHg 86%
    02:00 +27°C° 0 mm 3 mps 733 mmHg 87%
    03:00 +27°C° 0 mm 3 mps 732 mmHg 87%
    04:00 +27°C° 0 mm 3 mps 732 mmHg 88%
    05:00 +27°C° 0 mm 3 mps 732 mmHg 89%
    06:00 +27°C° 0 mm 4 mps 733 mmHg 87%
    07:00 +28°C° 0 mm 5 mps 733 mmHg 84%
    08:00 +28°C° 0 mm 5 mps 734 mmHg 82%
    09:00 +29°C° 0 mm 6 mps 734 mmHg 79%
    10:00 +30°C° 0 mm 6 mps 734 mmHg 76%
    11:00 +32°C° 0 mm 6 mps 734 mmHg 72%
    12:00 +33°C° 0 mm 6 mps 733 mmHg 71%
    13:00 +33°C° 0 mm 6 mps 733 mmHg 69%
    14:00 +33°C° 0 mm 6 mps 732 mmHg 67%
    15:00 +33°C° 0 mm 5 mps 732 mmHg 68%
    16:00 +33°C° 0 mm 5 mps 732 mmHg 70%
    17:00 +32°C° 0 mm 4 mps 731 mmHg 71%
    18:00 +30°C° 0 mm 4 mps 732 mmHg 74%
    19:00 +29°C° 0 mm 4 mps 732 mmHg 77%
    20:00 +28°C° 0 mm 3 mps 732 mmHg 80%
    21:00 +28°C° 0 mm 3 mps 732 mmHg 81%
    22:00 +28°C° 0 mm 3 mps 732 mmHg 82%
    23:00 +28°C° 0 mm 3 mps 733 mmHg 83%

    22 August, Thursday

    Time Temperature Precipitation Wind Pressure Humidity
    00:00 +27°C° 0 mm 3 mps 732 mmHg 83%
    01:00 +27°C° 0 mm 3 mps 732 mmHg 84%
    02:00 +27°C° 0 mm 3 mps 732 mmHg 85%
    03:00 +26°C° 0 mm 3 mps 732 mmHg 86%
    04:00 +26°C° 0 mm 4 mps 732 mmHg 87%
    05:00 +26°C° 0 mm 4 mps 732 mmHg 88%
    06:00 +27°C° 0 mm 4 mps 732 mmHg 87%
    07:00 +27°C° 0 mm 4 mps 732 mmHg 85%
    08:00 +28°C° 0 mm 5 mps 733 mmHg 84%
    09:00 +29°C° 0 mm 5 mps 733 mmHg 80%
    10:00 +30°C° 0 mm 5 mps 733 mmHg 76%
    11:00 +32°C° 0 mm 6 mps 733 mmHg 73%
    12:00 +32°C° 0 mm 6 mps 732 mmHg 70%
    13:00 +33°C° 0 mm 6 mps 732 mmHg 68%
    14:00 +33°C° 0 mm 6 mps 731 mmHg 66%
    15:00 +33°C° 0 mm 5 mps 731 mmHg 67%
    16:00 +33°C° 0 mm 5 mps 731 mmHg 69%
    17:00 +33°C° 0 mm 4 mps 730 mmHg 70%
    18:00 +32°C° 0 mm 4 mps 731 mmHg 73%
    19:00 +30°C° 0 mm 3 mps 731 mmHg 76%
    20:00 +29°C° 0 mm 3 mps 731 mmHg 79%
    21:00 +29°C° 0 mm 3 mps 731 mmHg 80%
    22:00 +28°C° 0 mm 3 mps 732 mmHg 81%
    23:00 +28°C° 0 mm 2 mps 732 mmHg 82%

    23 August, Friday

    Time Temperature Precipitation Wind Pressure Humidity
    00:00 +28°C° 0 mm 3 mps 732 mmHg 83%
    01:00 +27°C° 0 mm 3 mps 731 mmHg 84%
    02:00 +27°C° 0 mm 3 mps 731 mmHg 85%
    03:00 +26°C° 0 mm 3 mps 731 mmHg 87%
    04:00 +26°C° 0 mm 2 mps 731 mmHg 88%
    05:00 +26°C° 0 mm 2 mps 731 mmHg 89%
    06:00 +27°C° 0 mm 3 mps 732 mmHg 87%
    07:00 +27°C° 0 mm 4 mps 732 mmHg 86%
    08:00 +28°C° 0 mm 4 mps 732 mmHg 84%
    09:00 +29°C° 0 mm 5 mps 732 mmHg 79%
    10:00 +32°C° 0 mm 5 mps 732 mmHg 75%
    11:00 +33°C° 0 mm 5 mps 732 mmHg 71%
    12:00 +33°C° 0 mm 5 mps 732 mmHg 69%
    13:00 +34°C° 0 mm 5 mps 731 mmHg 67%
    14:00 +34°C° 0 mm 5 mps 731 mmHg 66%
    15:00 +34°C° 0 mm 5 mps 731 mmHg 67%
    16:00 +34°C° 0 mm 4 mps 730 mmHg 68%
    17:00 +33°C° 0 mm 4 mps 730 mmHg 70%
    18:00 +32°C° 0.8 mm 4 mps 731 mmHg 73%
    19:00 +30°C° 0.8 mm 3 mps 731 mmHg 76%
    20:00 +29°C° 0.8 mm 3 mps 732 mmHg 79%
    21:00 +29°C° 0.1 mm 3 mps 732 mmHg 79%
    22:00 +29°C° 0.1 mm 3 mps 732 mmHg 80%
    23:00 +29°C° 0.1 mm 2 mps 732 mmHg 80%

    24 August, Saturday

    Time Temperature Precipitation Wind Pressure Humidity
    00:00 +28°C° 0.1 mm 3 mps 732 mmHg 82%
    01:00 +28°C° 0.1 mm 3 mps 732 mmHg 84%
    02:00 +28°C° 0.1 mm 4 mps 731 mmHg 85%
    03:00 +27°C° 0 mm 4 mps 731 mmHg 87%
    04:00 +27°C° 0 mm 4 mps 731 mmHg 88%
    05:00 +27°C° 0 mm 3 mps 731 mmHg 89%
    06:00 +27°C° 0 mm 4 mps 732 mmHg 88%
    07:00 +27°C° 0 mm 4 mps 732 mmHg 86%
    08:00 +28°C° 0 mm 4 mps 733 mmHg 85%
    09:00 +28°C° 0 mm 4 mps 733 mmHg 82%
    10:00 +29°C° 0 mm 5 mps 733 mmHg 80%
    11:00 +30°C° 0 mm 5 mps 733 mmHg 77%
    12:00 +32°C° 0 mm 5 mps 733 mmHg 74%
    13:00 +32°C° 0 mm 5 mps 732 mmHg 71%
    14:00 +33°C° 0 mm 6 mps 732 mmHg 68%
    15:00 +33°C° 0 mm 5 mps 731 mmHg 69%
    16:00 +33°C° 0 mm 5 mps 731 mmHg 71%
    17:00 +32°C° 0 mm 4 mps 731 mmHg 72%
    18:00 +30°C° 0 mm 3 mps 731 mmHg 73%
    19:00 +30°C° 0 mm 3 mps 731 mmHg 74%
    20:00 +29°C° 0 mm 2 mps 732 mmHg 76%
    21:00 +29°C° 0.1 mm 2 mps 732 mmHg 76%
    22:00 +29°C° 0.1 mm 2 mps 732 mmHg 76%
    23:00 +28°C° 0.1 mm 2 mps 732 mmHg 76%
    Show more